Temp
6 6 6 6 7 7 7 7 7 8 7 8 9 9 9 10 10 9 10 10 10 10 10 10 11 10 11 11 11 11 11 11 10 11 11 11 11 12 12 12 12 11 11
7 7 7 7 7 7 8 8 7 7 7 8 8 8 9 9 10 10 9 9 9 10 10 10 12 11 11 11 10 11 10 11 10 10 12 11 11 12 11 11 10 10 10
7 7 7 7 7 7 7 7 8 8 8 8 8 8 9 9 9 9 9 9 9 9 10 10 10 10 11 11 10 10 11 11 11 11 11 11 10 11 11 11 11 11 10
6 7 7 7 7 7 7 7 7 7 8 8 8 8 8 8 8 8 8 8 9 9 9 10 10 9 11 11 11 10 10 11 11 10 10 10 10 10 10 10 10 10 10
5 6 6 7 7 7 7 7 7 7 7 7 7 7 8 8 8 8 8 8 8 9 9 9 10 10 10 10 10 10 10 10 9 10 10 9 9 9 9 9 8 9 9
4 5 6 6 6 7 7 7 7 8 7 7 8 8 8 8 8 8 8 8 8 9 9 9 9 9 9 9 9 9 10 10 9 9 9 9 9 8 8 8 8 8 8
4 5 6 6 6 6 6 7 7 7 7 7 8 8 8 8 9 9 8 8 8 9 9 9 9 9 9 8 9 9 9 9 9 9 9 8 8 7 8 7 7 7 7
4 5 5 5 5 6 6 6 6 6 6 7 7 8 8 8 8 8 9 9 9 9 9 9 8 8 9 9 8 8 8 8 8 8 7 7 6 6 6 6 6 6 6
3 4 5 5 5 5 4 4 4 4 5 5 5 4 5 6 7 7 7 8 7 7 7 8 8 7 7 7 7 7 6 6 6 6 6 5 5 4 5 4 4 4 4
3 3 2 2 3 3 3 3 3 3 3 3 3 3 4 5 5 6 6 5 6 6 6 5 6 6 6 6 6 6 5 6 5 5 4 3 3 3 3 3 2 2 2
3 3 3 3 3 3 3 3 3 3 3 3 3 3 4 4 5 5 4 5 4 4 5 5 5 5 5 5 5 5 5 4 4 3 3 2 1 -0 -0 -0 0 0 0
3 4 4 3 3 3 3 3 3 2 3 4 4 4 4 4 4 4 4 4 4 5 5 4 4 3 3 3 3 3 3 2 2 1 1 1 1 -0 -0 -0 -1 -1 -2
3 4 4 4 4 4 4 4 4 3 3 4 3 3 3 3 3 3 3 3 3 4 3 3 2 2 2 2 2 1 1 1 1 1 1 0 -0 -1 -1 -1 -1 -1 -1
4 4 4 4 4 4 4 3 3 3 3 2 2 2 2 2 2 2 2 2 2 2 2 1 1 1 1 1 0 0 0 -0 -0 -1 -1 -1 -1 -1 -2 -4 -4 -3 -3
5 5 5 4 4 4 4 3 3 3 3 2 2 1 1 2 2 1 1 1 1 1 1 0 -0 -0 -0 -0 -1 -1 -1 -1 -2 -3 -3 -4 -4 -5 -4 -5 -6 -6 -7
5 4 4 4 3 3 3 2 2 2 2 1 1 1 1 1 1 0 0 0 0 -0 -1 -0 -1 -1 -1 -2 -2 -3 -3 -3 -3 -3 -3 -4 -4 -4 -3 -4 -6 -7 -8
5 5 4 3 3 3 3 2 2 2 2 2 2 1 1 0 0 -0 -0 -1 -1 -1 -1 -1 -2 -2 -2 -3 -3 -3 -3 -3 -3 -3 -3 -4 -4 -5 -5 -7 -8 -8 -8
5 5 5 4 3 3 2 2 2 1 1 1 0 0 -0 -0 -1 -1 -1 -2 -2 -2 -2 -2 -3 -3 -3 -3 -3 -3 -3 -4 -4 -4 -5 -5 -6 -6 -7 -8 -9 -9 -9
5 5 4 3 2 2 1 1 1 1 0 0 -0 -1 -1 -1 -2 -2 -2 -3 -3 -3 -4 -4 -4 -4 -4 -4 -4 -4 -4 -5 -5 -5 -6 -6 -7 -8 -8 -9 -10 -10 -10
4 4 3 3 3 2 2 1 1 0 0 -0 -1 -1 -2 -2 -2 -3 -3 -4 -4 -4 -5 -5 -5 -5 -5 -5 -5 -5 -5 -6 -6 -7 -7 -8 -8 -9 -9 -10 -11 -11 -11
4 4 3 3 3 2 2 1 1 -0 -0 -1 -1 -2 -3 -3 -4 -4 -4 -5 -5 -5 -5 -6 -6 -6 -6 -6 -6 -6 -7 -7 -8 -8 -9 -9 -9 -10 -10 -11 -11 -11 -11
4 4 3 3 3 2 2 1 0 -1 -1 -1 -2 -3 -3 -4 -4 -4 -4 -5 -5 -6 -6 -7 -7 -7 -7 -7 -7 -7 -8 -8 -8 -9 -9 -9 -10 -11 -11 -11 -11 -11 -10
2 2 2 2 2 1 0 0 -1 -1 -2 -2 -3 -3 -3 -4 -4 -4 -5 -5 -6 -6 -7 -7 -7 -7 -7 -7 -7 -8 -8 -8 -9 -9 -9 -10 -11 -11 -11 -11 -11 -10 -10
1 1 1 0 0 0 0 -0 -1 -2 -2 -3 -3 -3 -4 -4 -4 -5 -5 -6 -7 -7 -7 -7 -7 -7 -7 -7 -8 -8 -8 -8 -9 -9 -10 -11 -11 -11 -11 -11 -11 -11 -10
2 1 0 0 0 -0 -1 -1 -1 -2 -3 -3 -3 -4 -4 -5 -5 -5 -6 -6 -7 -7 -7 -8 -7 -7 -7 -7 -8 -8 -8 -9 -9 -9 -10 -11 -11 -11 -11 -11 -11 -10 -10
1 0 -1 -1 -0 -1 -1 -2 -3 -3 -3 -4 -4 -4 -4 -5 -5 -6 -6 -7 -7 -7 -8 -8 -7 -7 -7 -8 -8 -8 -8 -9 -9 -10 -11 -11 -11 -10 -11 -11 -11 -11 -10
Height
1426 1427 1427 1428 1429 1429 1430 1432 1434 1438 1443 1446 1449 1452 1454 1456 1458 1460 1460 1460 1461 1463 1466 1468 1470 1472 1474 1478 1479 1481 1478 1483 1483 1485 1488 1488 1487 1486 1487 1488 1489 1490 1491
1422 1423 1424 1425 1426 1427 1428 1429 1432 1434 1438 1441 1444 1446 1448 1450 1452 1453 1454 1455 1456 1456 1458 1460 1461 1465 1467 1469 1471 1470 1470 1474 1477 1477 1478 1477 1478 1478 1477 1478 1479 1479 1479
1419 1420 1423 1424 1425 1426 1427 1428 1429 1431 1434 1437 1439 1441 1442 1444 1446 1447 1448 1449 1450 1451 1451 1452 1454 1457 1459 1461 1458 1462 1464 1467 1469 1470 1468 1469 1469 1468 1469 1468 1467 1467 1467
1418 1419 1422 1423 1424 1425 1425 1426 1427 1429 1430 1432 1434 1435 1436 1438 1439 1440 1442 1442 1443 1444 1445 1447 1449 1450 1452 1453 1454 1455 1456 1458 1459 1461 1460 1461 1461 1459 1460 1458 1456 1456 1457
1417 1419 1421 1422 1422 1423 1424 1425 1425 1427 1428 1429 1430 1431 1431 1432 1433 1434 1436 1437 1437 1437 1438 1440 1442 1444 1447 1449 1449 1449 1450 1452 1454 1455 1453 1453 1452 1453 1451 1451 1451 1452 1450
1419 1420 1422 1423 1423 1423 1423 1424 1425 1425 1425 1426 1427 1427 1427 1427 1427 1429 1430 1431 1432 1432 1433 1435 1437 1439 1440 1443 1444 1444 1446 1444 1446 1447 1448 1445 1445 1444 1445 1443 1443 1444 1443
1425 1425 1425 1424 1423 1423 1424 1423 1423 1423 1424 1425 1425 1424 1423 1423 1422 1423 1425 1426 1427 1428 1429 1430 1432 1432 1435 1437 1439 1439 1438 1439 1439 1440 1439 1440 1439 1438 1438 1437 1437 1435 1435
1430 1428 1428 1426 1425 1423 1422 1421 1421 1422 1421 1421 1421 1420 1419 1417 1416 1417 1419 1421 1422 1423 1424 1427 1427 1427 1432 1434 1434 1432 1434 1431 1432 1432 1433 1432 1432 1432 1432 1430 1430 1429 1428
1435 1433 1431 1428 1425 1423 1422 1421 1421 1420 1420 1419 1417 1417 1416 1414 1414 1413 1413 1414 1416 1417 1419 1420 1423 1425 1426 1427 1427 1427 1427 1427 1426 1427 1428 1428 1428 1428 1426 1426 1425 1424 1422
1439 1436 1434 1431 1428 1426 1425 1423 1422 1420 1418 1416 1416 1415 1415 1415 1415 1414 1414 1413 1414 1416 1417 1418 1419 1420 1422 1423 1422 1422 1424 1424 1424 1424 1425 1424 1423 1422 1421 1421 1419 1418 1416
1442 1440 1438 1436 1433 1431 1429 1427 1426 1423 1422 1420 1418 1416 1415 1414 1415 1415 1417 1416 1415 1415 1416 1417 1418 1419 1420 1420 1421 1422 1421 1421 1420 1420 1419 1418 1418 1418 1417 1415 1415 1414 1412
1444 1441 1439 1437 1435 1434 1432 1431 1429 1428 1427 1424 1422 1420 1419 1418 1418 1418 1419 1419 1418 1418 1419 1419 1419 1420 1419 1418 1418 1418 1417 1416 1415 1415 1414 1413 1412 1411 1410 1410 1410 1408 1406
1444 1442 1440 1438 1436 1434 1433 1432 1431 1429 1428 1426 1425 1423 1422 1420 1420 1420 1420 1420 1419 1419 1418 1418 1418 1418 1417 1416 1415 1414 1414 1412 1411 1410 1409 1409 1408 1407 1405 1405 1404 1401 1400
1442 1440 1438 1436 1435 1433 1432 1431 1430 1429 1427 1427 1426 1425 1424 1423 1422 1422 1421 1421 1420 1419 1418 1418 1417 1416 1414 1413 1411 1411 1410 1409 1408 1407 1405 1404 1403 1402 1400 1398 1395 1393 1390
1439 1438 1436 1434 1432 1431 1430 1429 1428 1427 1426 1425 1425 1424 1424 1423 1422 1422 1421 1420 1419 1418 1417 1416 1415 1414 1413 1411 1410 1408 1407 1405 1404 1402 1401 1400 1399 1397 1395 1393 1391 1387 1387
1437 1435 1434 1432 1431 1430 1429 1429 1428 1427 1426 1426 1425 1424 1424 1423 1422 1421 1421 1421 1420 1418 1417 1416 1414 1412 1410 1408 1406 1404 1403 1402 1399 1397 1396 1395 1393 1390 1388 1389 1387 1384 1383
1433 1432 1431 1430 1429 1428 1427 1426 1426 1425 1424 1425 1425 1424 1424 1424 1423 1422 1420 1419 1417 1416 1414 1412 1410 1409 1407 1405 1404 1402 1400 1398 1396 1394 1392 1390 1388 1386 1385 1384 1384 1383 1383
1428 1428 1427 1426 1426 1425 1425 1425 1424 1424 1424 1424 1423 1423 1423 1422 1422 1421 1419 1418 1417 1415 1414 1411 1409 1406 1405 1403 1401 1400 1398 1396 1394 1392 1390 1387 1386 1384 1382 1381 1381 1381 1381
1423 1423 1422 1422 1422 1422 1422 1421 1421 1421 1421 1421 1421 1422 1421 1421 1420 1419 1418 1416 1415 1414 1412 1411 1408 1406 1403 1401 1399 1397 1395 1393 1391 1389 1388 1385 1383 1382 1381 1377 1376 1377 1376
1418 1418 1417 1416 1416 1415 1414 1414 1414 1414 1415 1415 1416 1417 1418 1418 1417 1416 1415 1413 1412 1411 1409 1408 1406 1404 1402 1400 1397 1395 1393 1392 1390 1388 1386 1383 1382 1382 1379 1377 1375 1373 1370
1409 1409 1409 1408 1407 1407 1407 1407 1408 1408 1409 1409 1410 1411 1411 1411 1411 1411 1410 1409 1408 1407 1406 1405 1403 1401 1400 1397 1395 1392 1391 1390 1388 1386 1384 1383 1382 1381 1379 1376 1373 1370 1367
1400 1399 1399 1398 1399 1399 1399 1400 1400 1401 1401 1402 1403 1404 1405 1405 1405 1406 1405 1405 1404 1403 1402 1402 1399 1397 1396 1394 1392 1390 1387 1387 1385 1384 1382 1381 1380 1379 1376 1373 1370 1367 1364
1390 1390 1390 1391 1391 1392 1393 1393 1394 1395 1396 1397 1398 1398 1399 1399 1399 1399 1399 1399 1398 1397 1397 1397 1395 1393 1392 1390 1388 1386 1384 1383 1382 1381 1380 1380 1379 1376 1374 1371 1368 1364 1360
1380 1380 1380 1381 1383 1383 1384 1385 1386 1387 1388 1389 1390 1391 1392 1393 1393 1394 1394 1393 1393 1393 1392 1391 1390 1389 1388 1386 1385 1383 1381 1380 1379 1378 1377 1377 1376 1374 1372 1369 1365 1362 1358
1371 1370 1370 1371 1372 1374 1375 1376 1378 1379 1380 1382 1384 1385 1386 1387 1387 1387 1388 1388 1388 1388 1388 1387 1386 1384 1383 1382 1382 1380 1378 1377 1376 1375 1376 1375 1373 1371 1370 1367 1363 1359 1356
1363 1362 1362 1363 1363 1364 1365 1368 1370 1372 1373 1375 1377 1378 1378 1379 1380 1381 1381 1381 1382 1383 1383 1383 1382 1381 1380 1379 1378 1377 1375 1374 1373 1373 1373 1372 1370 1369 1367 1365 1361 1358 1355
Wind_Speed
12 14 14 13 12 12 16 18 21 24 29 28 29 29 31 34 30 24 23 28 30 35 38 40 41 38 42 42 46 42 47 39 41 43 35 32 33 33 34 36 38 42 39
11 13 12 10 10 11 11 11 14 18 22 28 29 30 30 29 29 31 29 30 27 30 33 40 34 33 36 32 38 38 41 35 32 31 30 33 32 34 35 37 40 40 41
8 11 9 9 12 10 9 10 10 13 16 20 23 26 27 28 27 27 30 30 28 31 30 32 34 33 33 33 35 33 28 26 28 30 35 33 34 35 38 40 42 38 43
8 4 7 9 11 11 10 10 10 11 13 15 19 22 25 26 26 26 25 25 30 32 31 33 33 33 33 31 29 28 28 26 26 30 34 35 36 37 41 44 47 45 44
2 9 6 2 6 9 11 11 12 13 15 17 16 17 19 23 25 22 23 25 29 29 26 30 30 29 29 32 29 29 25 25 28 32 32 34 34 34 21 18 22 23 24
11 4 4 4 3 1 3 6 8 11 14 15 15 15 15 16 19 23 24 25 22 21 23 25 24 23 21 23 25 24 27 28 25 30 38 33 21 18 23 23 24 25 30
16 10 7 4 0 4 4 4 4 6 5 6 9 13 15 19 16 16 18 20 21 22 21 21 23 21 21 25 29 25 29 26 24 21 20 22 22 21 22 19 18 21 23
14 12 9 5 2 3 6 7 8 6 6 7 9 10 12 15 15 19 20 20 22 24 24 23 22 20 24 25 23 24 22 19 19 18 16 14 15 16 18 19 20 22 23
16 13 8 6 5 4 1 1 2 4 7 7 5 5 4 1 6 5 4 9 13 16 19 16 19 23 23 25 18 13 10 8 8 11 12 13 14 15 16 17 18 21 24
13 12 12 13 15 13 9 7 4 2 4 4 8 10 9 4 0 3 2 11 13 15 16 15 14 9 9 10 6 6 8 8 8 10 10 11 13 14 16 16 17 17 19
7 6 6 8 9 10 9 9 7 9 10 10 9 10 9 8 7 7 9 8 10 12 9 7 5 4 4 5 6 7 8 8 10 10 11 11 11 12 14 15 16 17 19
6 5 4 3 3 3 3 4 5 5 4 7 8 9 10 9 9 8 6 5 6 5 5 5 3 0 2 4 4 6 7 8 8 9 10 11 13 15 15 15 16 18 19
8 7 5 4 4 3 3 1 1 2 1 2 3 5 7 9 8 8 7 6 4 2 4 3 2 3 4 5 5 6 6 8 9 10 11 13 14 16 16 18 18 19 20
10 9 8 6 5 5 4 4 2 1 1 2 3 4 5 6 6 6 5 4 4 3 3 3 4 4 5 7 8 8 9 9 10 10 11 12 13 15 16 17 18 19 20
12 11 11 9 7 6 5 4 4 5 4 3 2 2 2 1 3 4 5 5 4 4 5 4 4 4 4 5 5 6 7 8 9 11 11 13 14 15 16 17 18 19 20
16 15 14 14 12 10 9 7 6 6 5 4 3 2 2 2 1 1 2 2 2 3 3 4 5 5 6 7 8 8 9 10 11 12 14 14 15 18 19 20 19 19 21
18 17 17 17 17 16 15 13 12 11 10 9 8 8 7 6 5 5 6 6 6 7 7 8 8 8 9 9 10 10 11 12 13 14 15 16 16 18 18 18 17 18 20
21 20 20 20 20 20 20 19 18 16 15 13 12 12 11 10 10 9 9 9 9 9 10 10 9 9 9 10 10 10 10 11 14 14 14 14 14 15 16 15 16 17 19
24 24 23 22 22 22 22 21 21 20 19 18 17 16 15 14 13 12 11 11 11 11 12 11 11 10 10 10 10 10 10 11 12 12 11 12 12 13 14 14 14 15 18
27 26 25 25 25 25 25 24 24 23 22 21 20 18 17 17 16 14 13 13 12 12 13 12 12 12 12 10 11 11 10 10 10 9 9 10 11 12 14 15 16 18 19
30 28 28 27 28 27 25 26 25 25 24 23 22 20 19 19 17 16 16 15 14 14 14 13 13 12 12 12 12 10 9 9 9 8 9 10 11 13 14 15 19 20 21
31 30 30 31 29 29 28 26 26 26 26 25 23 21 20 21 19 18 17 16 16 15 15 15 13 12 12 13 12 10 7 7 7 8 9 9 9 10 13 16 20 20 19
30 33 33 33 32 30 28 28 27 27 26 24 23 22 21 21 19 18 17 17 16 16 15 15 14 13 13 12 10 9 8 7 7 8 8 6 9 12 14 17 20 20 20
26 28 31 32 33 32 31 29 27 26 25 24 23 23 22 20 19 18 17 17 17 16 16 15 14 13 12 10 9 9 7 6 6 6 5 7 11 14 16 18 18 19 20
24 25 26 28 30 32 31 29 26 25 25 23 22 22 20 19 18 17 18 17 17 17 16 15 13 12 11 10 9 8 7 7 6 5 4 10 13 13 15 14 16 17 19
23 24 24 26 29 30 31 27 23 22 22 22 22 20 19 17 16 16 17 19 18 17 15 14 13 11 10 10 8 8 7 6 5 4 6 12 10 11 13 13 13 16 19
Wind_Direction
254 254 264 270 263 256 249 245 241 240 235 239 240 242 242 245 250 258 263 259 258 253 252 246 256 256 261 255 247 253 248 252 248 258 270 273 270 279 278 273 276 280 272
229 248 255 268 267 257 258 255 250 243 237 236 239 245 249 251 252 256 261 262 266 258 253 248 248 259 255 253 255 256 257 252 259 260 271 271 266 268 274 277 274 273 270
224 238 242 249 254 275 280 277 261 250 245 243 243 247 252 256 258 259 258 258 263 265 259 254 247 250 257 264 249 248 246 254 254 265 271 274 279 280 284 282 281 279 274
226 194 212 249 249 256 266 271 271 261 253 252 253 257 259 262 262 262 264 263 257 259 262 255 253 250 252 259 249 252 252 260 260 267 271 276 282 284 285 272 271 264 272
69 220 220 224 254 249 247 257 255 253 253 257 256 258 259 256 256 257 264 263 269 263 254 252 255 256 254 251 258 266 264 267 267 273 273 283 278 277 269 283 285 289 284
70 126 213 266 273 38 250 249 249 258 257 256 257 256 257 261 264 259 264 261 255 261 251 253 251 249 247 254 263 266 267 260 265 262 273 269 258 276 285 279 281 281 285
70 78 64 53 266 245 249 255 251 237 234 248 250 256 259 261 262 264 264 257 257 257 252 247 247 252 260 263 264 268 254 256 256 254 260 259 273 269 271 271 271 274 278
67 79 76 69 14 297 259 254 254 256 250 261 268 268 272 279 270 241 246 251 254 259 258 252 252 251 251 253 247 249 249 244 251 255 254 258 271 277 281 284 284 283 283
62 62 65 50 42 57 96 253 249 252 269 259 259 275 276 64 3 342 235 248 244 236 233 243 233 241 238 247 227 229 232 243 258 270 279 283 283 286 290 293 293 294 292
56 56 53 53 55 59 73 80 89 89 87 122 165 151 148 127 119 318 227 172 174 176 172 173 179 183 209 229 221 239 248 262 271 277 280 282 285 285 285 287 289 293 299
36 45 49 47 55 61 63 72 80 84 90 97 101 102 107 103 114 130 135 127 134 135 144 157 163 219 263 259 258 258 268 277 282 284 286 287 287 290 288 290 299 305 304
17 9 5 13 24 49 60 75 88 97 108 103 102 107 108 113 117 116 121 115 117 137 150 150 152 163 303 314 316 316 313 309 304 307 308 307 307 306 308 305 304 303 301
350 351 355 353 337 326 315 293 234 192 174 120 96 96 103 106 109 109 108 107 104 96 83 77 25 0 345 328 324 334 327 321 327 329 330 328 326 322 315 305 298 294 292
324 327 328 328 324 319 316 302 296 275 181 157 142 131 118 114 112 104 97 84 62 53 38 22 6 1 359 356 356 352 349 348 345 337 332 331 331 332 334 334 334 330 325
300 300 300 296 290 284 276 272 263 251 231 205 206 164 125 105 82 58 40 25 19 3 357 356 347 340 337 333 330 326 323 330 336 341 343 342 340 337 337 336 335 335 333
290 289 290 290 284 277 274 271 261 261 256 240 244 240 261 279 303 319 292 293 295 290 293 298 311 321 329 337 342 341 339 344 346 343 339 339 334 332 331 327 331 336 335
282 281 279 278 277 273 270 267 265 263 266 269 270 269 270 277 276 279 286 298 309 315 314 319 324 327 331 334 336 337 337 340 338 331 332 332 331 330 328 329 328 328 328
281 280 278 275 273 271 268 268 266 264 264 263 262 263 264 267 271 278 289 298 304 306 308 311 312 313 316 318 318 321 325 327 326 329 330 331 328 323 321 321 321 320 319
281 282 282 280 277 275 271 270 269 268 265 263 262 263 266 267 270 278 287 293 297 301 303 305 306 309 313 314 315 320 325 323 322 326 329 334 337 334 331 331 321 310 309
278 280 278 277 275 273 269 267 265 264 264 263 262 263 266 270 274 279 280 284 292 296 298 299 303 307 310 314 315 318 323 320 317 328 340 345 344 341 341 340 339 334 324
277 276 276 274 272 273 271 267 266 263 261 260 262 263 264 266 271 275 281 286 291 291 291 291 295 301 305 312 317 323 322 319 324 337 344 345 341 342 343 339 334 331 323
274 273 270 270 272 270 270 268 264 262 259 258 258 258 260 264 271 275 278 280 281 282 284 286 292 296 302 309 311 313 319 318 325 336 340 341 342 345 339 339 339 333 323
274 272 271 270 270 270 268 267 265 262 262 261 259 257 257 261 265 266 271 271 273 275 279 281 286 292 299 301 302 304 312 315 320 327 336 347 346 341 340 339 336 335 335
280 277 275 272 270 269 268 266 266 265 262 259 255 254 257 261 263 267 270 267 269 272 273 276 282 289 292 292 295 300 305 308 312 320 324 340 340 339 336 335 336 336 337
281 276 274 273 271 269 268 267 268 266 263 259 255 253 258 261 262 266 267 266 267 268 270 273 279 284 286 290 291 296 299 303 303 313 331 338 326 333 333 335 340 341 341
280 278 275 273 271 268 265 263 264 268 265 260 255 254 254 252 255 262 265 264 260 262 266 269 276 277 279 281 285 292 298 302 304 301 322 296 308 325 333 340 347 348 347